When you browse on this site, cookies collect data to enhance your experience and personalize the content and advertising you see.
Visit our Privacy Policy to learn more. By continuing to use the site, you agree to this use of cookies and data.
  • In Austria
  • List of Countries
  • For 7 days
  • Water Temperature
  • Weather Map
  • News
  • Weather Widgets
  • user-avatar
    Login

    Hourly Weather Bialystok

    Today, 19 September, Thursday

    Time Temperature Precipitation Wind Pressure Humidity
    00:00 +5°C° 0 mm 4 mps 748 mmHg 89%
    01:00 +5°C° 0 mm 4 mps 748 mmHg 90%
    02:00 +4°C° 0 mm 4 mps 748 mmHg 91%
    03:00 +4°C° 0 mm 4 mps 748 mmHg 92%
    04:00 +4°C° 0 mm 4 mps 749 mmHg 92%
    05:00 +4°C° 0 mm 4 mps 749 mmHg 92%
    06:00 +5°C° 0 mm 4 mps 749 mmHg 89%
    07:00 +6°C° 0 mm 4 mps 749 mmHg 86%
    08:00 +7°C° 0 mm 4 mps 750 mmHg 83%
    09:00 +8°C° 0.1 mm 4 mps 750 mmHg 76%
    10:00 +11°C° 0.1 mm 4 mps 750 mmHg 70%
    11:00 +13°C° 0.1 mm 4 mps 750 mmHg 64%
    12:00 +13°C° 0.4 mm 5 mps 750 mmHg 62%
    13:00 +13°C° 0.4 mm 5 mps 750 mmHg 60%
    14:00 +14°C° 0.4 mm 5 mps 750 mmHg 58%
    15:00 +13°C° 0.4 mm 5 mps 750 mmHg 62%
    16:00 +13°C° 0.4 mm 4 mps 750 mmHg 65%
    17:00 +12°C° 0.4 mm 4 mps 750 mmHg 69%
    18:00 +11°C° 0.1 mm 4 mps 750 mmHg 74%
    19:00 +8°C° 0.1 mm 4 mps 751 mmHg 78%
    20:00 +8°C° 0.1 mm 3 mps 751 mmHg 82%
    21:00 +6°C° 0 mm 4 mps 751 mmHg 85%
    22:00 +6°C° 0 mm 4 mps 751 mmHg 88%
    23:00 +6°C° 0 mm 4 mps 752 mmHg 90%

    Tomorrow, 20 September, Friday

    Time Temperature Precipitation Wind Pressure Humidity
    00:00 +5°C° 0 mm 4 mps 752 mmHg 91%
    01:00 +5°C° 0 mm 4 mps 752 mmHg 92%
    02:00 +5°C° 0 mm 4 mps 752 mmHg 94%
    03:00 +4°C° 0 mm 4 mps 752 mmHg 94%
    04:00 +4°C° 0 mm 3 mps 752 mmHg 94%
    05:00 +3°C° 0 mm 3 mps 752 mmHg 94%
    06:00 +4°C° 0 mm 4 mps 753 mmHg 90%
    07:00 +5°C° 0 mm 4 mps 753 mmHg 85%
    08:00 +6°C° 0 mm 4 mps 753 mmHg 81%
    09:00 +7°C° 0 mm 5 mps 753 mmHg 73%
    10:00 +8°C° 0 mm 5 mps 753 mmHg 65%
    11:00 +10°C° 0 mm 5 mps 754 mmHg 57%
    12:00 +10°C° 0 mm 5 mps 753 mmHg 53%
    13:00 +12°C° 0 mm 5 mps 753 mmHg 48%
    14:00 +13°C° 0 mm 5 mps 753 mmHg 44%
    15:00 +12°C° 0 mm 4 mps 753 mmHg 47%
    16:00 +12°C° 0 mm 4 mps 753 mmHg 49%
    17:00 +12°C° 0 mm 3 mps 753 mmHg 52%
    18:00 +10°C° 0 mm 3 mps 753 mmHg 59%
    19:00 +9°C° 0 mm 2 mps 753 mmHg 66%
    20:00 +7°C° 0 mm 2 mps 753 mmHg 73%
    21:00 +7°C° 0 mm 2 mps 753 mmHg 75%
    22:00 +7°C° 0 mm 1 mps 753 mmHg 78%
    23:00 +7°C° 0 mm 1 mps 753 mmHg 81%

    Day after tomorrow, 21 September, Saturday

    Time Temperature Precipitation Wind Pressure Humidity
    00:00 +6°C° 0 mm 2 mps 753 mmHg 81%
    01:00 +6°C° 0 mm 2 mps 753 mmHg 82%
    02:00 +5°C° 0 mm 3 mps 753 mmHg 83%
    03:00 +5°C° 0 mm 3 mps 752 mmHg 83%
    04:00 +5°C° 0 mm 4 mps 752 mmHg 82%
    05:00 +5°C° 0 mm 4 mps 752 mmHg 82%
    06:00 +6°C° 0 mm 5 mps 752 mmHg 83%
    07:00 +7°C° 0 mm 5 mps 751 mmHg 83%
    08:00 +8°C° 0 mm 5 mps 751 mmHg 83%
    09:00 +9°C° 0 mm 6 mps 751 mmHg 82%
    10:00 +10°C° 0 mm 6 mps 751 mmHg 81%
    11:00 +11°C° 0 mm 6 mps 751 mmHg 80%
    12:00 +13°C° 0 mm 6 mps 751 mmHg 78%
    13:00 +14°C° 0 mm 6 mps 751 mmHg 75%
    14:00 +14°C° 0 mm 6 mps 751 mmHg 73%
    15:00 +14°C° 0 mm 5 mps 751 mmHg 74%
    16:00 +14°C° 0 mm 5 mps 751 mmHg 74%
    17:00 +14°C° 0 mm 4 mps 751 mmHg 75%
    18:00 +13°C° 0 mm 4 mps 751 mmHg 76%
    19:00 +12°C° 0 mm 4 mps 751 mmHg 78%
    20:00 +12°C° 0 mm 3 mps 751 mmHg 80%
    21:00 +11°C° 0 mm 3 mps 751 mmHg 83%
    22:00 +11°C° 0 mm 3 mps 751 mmHg 86%
    23:00 +10°C° 0 mm 3 mps 751 mmHg 89%

    22 September, Sunday

    Time Temperature Precipitation Wind Pressure Humidity
    00:00 +10°C° 0 mm 3 mps 751 mmHg 91%
    01:00 +9°C° 0 mm 3 mps 751 mmHg 93%
    02:00 +9°C° 0 mm 3 mps 751 mmHg 95%
    03:00 +9°C° 0 mm 3 mps 751 mmHg 95%
    04:00 +8°C° 0 mm 3 mps 751 mmHg 95%
    05:00 +8°C° 0 mm 2 mps 750 mmHg 96%
    06:00 +9°C° 0 mm 3 mps 750 mmHg 93%
    07:00 +10°C° 0 mm 3 mps 750 mmHg 90%
    08:00 +11°C° 0 mm 3 mps 750 mmHg 87%
    09:00 +13°C° 0 mm 3 mps 750 mmHg 79%
    10:00 +16°C° 0 mm 3 mps 750 mmHg 71%
    11:00 +18°C° 0 mm 3 mps 751 mmHg 63%
    12:00 +19°C° 0 mm 3 mps 750 mmHg 59%
    13:00 +20°C° 0 mm 3 mps 750 mmHg 56%
    14:00 +21°C° 0 mm 3 mps 750 mmHg 52%
    15:00 +20°C° 0 mm 2 mps 749 mmHg 55%
    16:00 +21°C° 0 mm 1 mps 749 mmHg 58%
    17:00 +21°C° 0 mm 1 mps 749 mmHg 61%
    18:00 +19°C° 0 mm 1 mps 749 mmHg 67%
    19:00 +16°C° 0 mm 1 mps 749 mmHg 74%
    20:00 +14°C° 0 mm 1 mps 749 mmHg 81%
    21:00 +13°C° 0 mm 2 mps 749 mmHg 84%
    22:00 +12°C° 0 mm 3 mps 749 mmHg 88%
    23:00 +11°C° 0 mm 3 mps 749 mmHg 91%

    23 September, Monday

    Time Temperature Precipitation Wind Pressure Humidity
    00:00 +11°C° 0 mm 3 mps 749 mmHg 92%
    01:00 +10°C° 0 mm 3 mps 748 mmHg 94%
    02:00 +10°C° 0 mm 4 mps 748 mmHg 95%
    03:00 +10°C° 0 mm 4 mps 748 mmHg 95%
    04:00 +10°C° 0 mm 4 mps 747 mmHg 95%
    05:00 +10°C° 0 mm 4 mps 746 mmHg 95%
    06:00 +10°C° 0 mm 4 mps 746 mmHg 91%
    07:00 +10°C° 0 mm 5 mps 746 mmHg 86%
    08:00 +12°C° 0 mm 5 mps 745 mmHg 81%
    09:00 +13°C° 0 mm 5 mps 745 mmHg 75%
    10:00 +14°C° 0 mm 5 mps 745 mmHg 68%
    11:00 +16°C° 0 mm 5 mps 744 mmHg 61%
    12:00 +15°C° 0 mm 5 mps 744 mmHg 63%
    13:00 +15°C° 0 mm 5 mps 743 mmHg 66%
    14:00 +14°C° 0 mm 5 mps 742 mmHg 69%
    15:00 +14°C° 0 mm 4 mps 742 mmHg 73%
    16:00 +13°C° 0 mm 4 mps 742 mmHg 77%
    17:00 +13°C° 0 mm 3 mps 741 mmHg 81%
    18:00 +13°C° 0 mm 3 mps 741 mmHg 83%
    19:00 +13°C° 0 mm 2 mps 741 mmHg 86%
    20:00 +13°C° 0 mm 2 mps 740 mmHg 88%
    21:00 +13°C° 0 mm 2 mps 740 mmHg 89%
    22:00 +12°C° 0 mm 1 mps 740 mmHg 90%
    23:00 +12°C° 0 mm 1 mps 740 mmHg 91%

    24 September, Tuesday

    Time Temperature Precipitation Wind Pressure Humidity
    00:00 +12°C° 0 mm 1 mps 740 mmHg 92%
    01:00 +11°C° 0 mm 0 mps 740 mmHg 92%
    02:00 +11°C° 0 mm 0 mps 740 mmHg 92%
    03:00 +11°C° 0 mm 0 mps 740 mmHg 92%
    04:00 +11°C° 0 mm 0 mps 740 mmHg 92%
    05:00 +11°C° 0 mm 0 mps 740 mmHg 91%
    06:00 +11°C° 0 mm 0 mps 740 mmHg 90%
    07:00 +13°C° 0 mm 1 mps 740 mmHg 89%
    08:00 +13°C° 0 mm 1 mps 740 mmHg 88%
    09:00 +14°C° 0 mm 1 mps 740 mmHg 82%
    10:00 +15°C° 0 mm 1 mps 741 mmHg 76%
    11:00 +18°C° 0 mm 1 mps 741 mmHg 70%
    12:00 +19°C° 0 mm 1 mps 741 mmHg 66%
    13:00 +19°C° 0 mm 2 mps 741 mmHg 61%
    14:00 +19°C° 0 mm 2 mps 741 mmHg 56%
    15:00 +19°C° 0 mm 2 mps 741 mmHg 59%
    16:00 +19°C° 0 mm 2 mps 741 mmHg 62%
    17:00 +18°C° 0 mm 2 mps 742 mmHg 65%
    18:00 +17°C° 0 mm 2 mps 742 mmHg 70%
    19:00 +16°C° 0 mm 2 mps 742 mmHg 74%
    20:00 +14°C° 0 mm 1 mps 742 mmHg 78%
    21:00 +14°C° 0 mm 2 mps 742 mmHg 80%
    22:00 +13°C° 0 mm 2 mps 742 mmHg 82%
    23:00 +12°C° 0 mm 2 mps 743 mmHg 84%
    Show more